DW8108 Weather Reports


Display with metric or nautical units.
time (UTC)temp
F
wind
direction
speed
MPH
gust
MPH
rain 1hr
in
rain 24hr
in
rain mn
in
humidity
%
barometer
mb
20260506044506 49 0.0 0.0 0.00 0.01 0.00 84 1009.7
20260506043005 49 0.0 4.0 0.00 0.01 0.00 84 1009.7
20260506041512 49 0.0 3.0 0.00 0.01 0.00 84 1009.8
20260506040006 49 0.0 3.0 0.00 0.01 0.00 83 1009.7
20260506034501 49 0.0 0.0 0.00 0.06 0.00 81 1009.5
20260506033100 49 0.0 0.0 0.00 0.06 0.00 81 1009.3
20260506031600 50 0.0 0.0 0.00 0.06 0.00 81 1009.1
20260506030100 50 0.0 0.0 0.00 0.06 0.00 81 1009.3
20260506024602 50 0.0 0.0 0.00 0.16 0.00 80 1009.2
20260506023101 50 0.0 0.0 0.00 0.16 0.00 80 1008.9
20260506021556 51 0.0 1.0 0.00 0.16 0.00 79 1008.9
20260506020056 51 0.0 0.0 0.00 0.16 0.00 78 1008.7
20260506014556 51 0.0 0.0 0.00 0.35 0.00 77 1008.5
20260506013055 52 0.0 1.0 0.00 0.35 0.00 76 1008.4
20260506011556 52 0.0 3.0 0.00 0.35 0.00 71 1008.2
20260506010055 52 0.0 4.0 0.00 0.35 0.00 70 1008.1
20260506004554 53 0.0 3.0 0.00 0.35 0.00 68 1008.2
20260506003054 53 0.0 4.0 0.00 0.35 0.00 67 1008.1
20260506001601 54 0.0 4.0 0.00 0.35 0.00 64 1007.9
20260506000053 54 0.0 6.0 0.00 0.35 0.00 63 1007.6
20260505234554 54 0.0 7.0 0.00 0.35 0.00 63 1007.7
20260505233051 54 0.0 5.0 0.00 0.35 0.00 63 1007.4
20260505231601 54 0.0 7.0 0.00 0.35 0.00 62 1007.7
20260505230058 54 0.0 8.0 0.00 0.35 0.00 62 1007.9
20260505224552 54 0.0 8.0 0.00 0.35 0.00 65 1008.0
20260505223050 54 0.0 5.0 0.00 0.35 0.00 69 1008.1
20260505221550 54 0.0 7.0 0.00 0.35 0.00 67 1008.3
20260505220049 54 0.0 7.0 0.00 0.35 0.00 65 1008.4
20260505214548 54 0.0 7.0 0.00 0.35 0.00 66 1008.4
20260505213056 55 0.0 6.0 0.00 0.35 0.00 63 1008.4
20260505211551 55 0.0 8.0 0.00 0.35 0.00 63 1008.4
20260505210047 56 0.0 10.0 0.00 0.35 0.00 63 1008.4
20260505204545 56 0.0 9.0 0.00 0.35 0.00 63 1008.5
20260505203047 57 0.0 11.0 0.00 0.35 0.00 61 1008.5
20260505201547 57 0.0 10.0 0.00 0.35 0.00 63 1008.3
20260505200046 57 0.0 12.0 0.00 0.35 0.00 65 1008.0
20260505194546 57 0.0 7.0 0.00 0.35 0.00 68 1008.1
20260505193042 57 0.0 10.0 0.00 0.35 0.00 68 1008.1
20260505191554 57 0.0 4.0 0.00 0.35 0.00 72 1008.5
20260505190042 56 0.0 8.0 0.00 0.35 0.00 73 1008.5
20260505184541 56 0.0 11.0 0.00 0.35 0.00 72 1008.6
20260505183041 56 0.0 11.0 0.00 0.35 0.00 70 1008.5
20260505181539 57 0.0 12.0 0.00 0.35 0.00 70 1008.5
20260505180051 57 0.0 10.0 0.00 0.35 0.00 73 1008.6
20260505174546 57 0.0 9.0 0.00 0.35 0.00 71 1008.3
20260505173036 57 0.0 12.0 0.00 0.35 0.00 74 1008.5
20260505171536 56 0.0 5.0 0.00 0.35 0.00 75 1008.5
20260505170035 55 0.0 10.0 0.00 0.35 0.00 76 1008.4
20260505164540 55 0.0 7.0 0.00 0.35 0.00 75 1008.5
20260505163034 54 0.0 8.0 0.00 0.35 0.00 76 1008.7
20260505161533 53 0.0 8.0 0.00 0.35 0.00 81 1008.9
20260505153033 49 0.0 10.0 0.00 0.35 0.00 84 1008.3
20260505151532 48 0.0 7.0 0.00 0.35 0.00 83 1008.4
20260505124513 50 0.0 9.0 0.00 0.35 0.00 74 1007.4
20260505123022 50 0.0 11.0 0.00 0.35 0.00 74 1007.5
20260505121506 51 0.0 13.0 0.00 0.35 0.00 74 1007.0
20260505120011 51 0.0 13.0 0.00 0.35 0.00 74 1005.9
20260505114501 51 0.0 9.0 0.00 0.35 0.00 76 1005.8
20260505113100 51 0.0 5.0 0.00 0.35 0.00 75 1005.1
20260505111600 51 0.0 5.0 0.00 0.35 0.00 76 1004.9
20260505101605 53 0.0 7.0 0.00 0.35 0.00 83 1005.4
20260505100101 54 0.0 8.0 0.00 0.35 0.00 83 1005.5
20260505094543 54 0.0 11.0 0.00 0.35 0.00 82 1004.8
20260505093041 54 0.0 9.0 0.00 0.35 0.00 83 1004.5
20260505091539 54 0.0 9.0 0.00 0.35 0.00 85 1004.0
20260505090037 54 0.0 9.0 0.00 0.35 0.00 89 1003.8
20260505084534 54 0.0 7.0 0.00 0.35 0.00 91 1003.4
20260505083032 54 0.0 6.0 0.00 0.35 0.00 93 1003.5
20260505081532 55 0.0 6.0 0.00 0.35 0.00 93 1003.3
20260505080028 55 0.0 4.0 0.00 0.35 0.00 93 1003.0
20260505074526 55 0.0 3.0 0.00 0.35 0.00 93 1002.7
20260505073035 55 0.0 3.0 0.00 0.35 0.00 93 1002.4
20260505071523 55 0.0 7.0 0.00 0.35 0.00 93 1002.4
20260505070021 55 0.0 5.0 0.00 0.35 0.00 93 1002.0
20260505064520 55 0.0 7.0 0.00 0.35 0.00 93 1002.1
20260505063017 55 0.0 4.0 0.00 0.35 0.00 93 1001.8
20260505061523 56 0.0 7.0 0.00 0.35 0.00 92 1001.6
20260505060014 56 0.0 6.0 0.00 0.35 0.00 92 1001.6